Location: Bannatyne
(13.0833°N, 59.5333°W)
Time: 06:25:05
(UTC+00:00)

Vanguard 3 - Pass Details

Date: 24 January 2020
Orbit: 508 x 3263 km, 33.3° (Epoch: 19 February)

Event Time Altitude Azimuth Distance (km) Brightness Sun altitude
Rises 00:45:38 0° 292° (WNW) 7,144 12.6 -40.7°
Reaches altitude 10° 00:51:48 10° 301° (WNW) 5,906 11.9 -42.2°
Enters shadow 01:05:11 31° 350° (N) 3,587 10.2 -45.3°
Maximum altitude 01:06:17 31° 358° (N) 3,487 - -45.6°
Drops below altitude 10° 01:15:57 10° 57° (ENE) 3,938 - -47.9°
Sets 01:19:05 0° 68° (ENE) 4,559 - -48.6°
